FALCON 9 DEB (47786 NORAD) Tracking and Keplerian Element Data

This shows tracking and keplerian element data for the satellite.

Feedback or suggestion? Click here.




ElementValue
Catalog47786
NameFALCON 9 DEB
Epoch Orbit891
Epoch Day86.03424765
Epoch Year2021
RAAN66.3499
Inclination53.0328
Eccentricity0.0005053
Argument of Perigee282.7915
Mean Anonmoly77.257
Mean Motion16.48126184
Decay Rate0.12048016
L11 47786U 21017BS 21086.03424765 .12048016 12607-4 18895-3 0 9997
L22 47786 53.0328 66.3499 0005053 282.7915 77.2570 16.48126184 8916



Live tracking and technical data element details for FALCON 9 DEB (NORAD 47786). FALCON 9 DEB can be tracked NOW for your location showing map with azimuth and elevation plus other details from your city location.







IsCatalogInMostPopularTable: catalog: 47786, numindb: 107
Update: records affected: 1



GetName: 47786 FALCON 9 DEB

Hit Count: updated at: Wed, 27 Sep 2023 19:18:36 GMT